SL-14 DEB

Satellite information

Favourite Embed

Satellite Type and Status

DEBRISIN ORBIT

Key statistics

Satellite SL-14 DEB at a glance.

Uptime

13939

Days in orbit

Revolutions

≈ 14.6

Per day

Orbit

LEO

Low Earth Orbit

Inclination

82.2

Latest

Satellite identification and parameters

Extended collection of information and parameters for SL-14 DEB.

Object identification

Identified? True

Debris? True

Object name: SL-14 DEB

International designator: 1987-068CC

Object number (NORAD): 25454

Object ID (CCSDS): 25454

Country: COMMONWEALTH OF INDEPENDENT STATES (CIS)

Current information (Y/N): Y

RCS size: SMALL

Orbital parameters

Period: 98.406 minutes

Inclination: 82.1547 deg

SMA: 7060.604 km

Apoapsis: 703.793 km

Periapsis: 661.146 km

RAAN: 308.5297 deg

Eccentricy: 0.0030201

Argument of periapsis: 311.731 deg

Mean anomaly: 48.131 deg

Mean motion: 14.63322109 rev/day

Mean motion (dot): 0.00030592 rev/day2

B* drag term: 0.0058641884 1/REarth

Two-line elements (TLE)

Creation date: Oct. 16, 2025, 2:37 a.m.

Reference frame: TEME

Reference center: EARTH

Epoch: Oct. 15, 2025, 7:04 p.m. UTC

TLE line 0: 0 SL-14 DEB

TLE line 1: 1 25454U 87068CC 25288.79472899 .00030592 00000-0 58642-2 0 9995

TLE line 2: 2 25454 82.1547 308.5297 0030201 311.7310 48.1310 14.63322109605701

Live tracking on map

Real-time ground track for satellite SL-14 DEB.

In-orbit conjunctions

A list of the most updated potential collisions computed for object SL-14 DEB.

Target Orbit TCA Probability of collision Miss distance Type
CZ-4 DEB SSO 2025-06-18 00:12:56 0.000251671 158.0 (m) DEBRIS
CBERS 1 SSO 2024-10-12 18:16:28 0.0001444583 928.0 (m) PAYLOAD
DMSP 5D-2 F13 DEB SSO 2024-09-26 21:55:57 0.0001578954 815.0 (m) DEBRIS

Associated space launch

Second generation soviet meteorological satellite

SL-14 DEB was lifted into orbit during the mission ‘Tsiklon-3 | Meteor-2 16’, on board a Tsiklon-3 space rocket.

The launch took place on Aug. 18, 1987, 2:27 a.m. from 32/1.

For more information about the launch, click the button.

Launch to space Tsiklon-3 | Meteor-2 16
Tsiklon-3 | Meteor-2 16

Agency: N/A

Status: Launch Successful

Launch date: Aug. 18, 1987, 2:27 a.m. UTC

Rocket: Tsiklon-3

Launch pad: 32/1

Location: Plesetsk Cosmodrome, Russian Federation

...

Latest news about this satellite

There are no fresh news available about this satellite. Check back as we update our databases every day.


Newsletter sign-up

Weekly statistics, charts and insights to help you stay on top of the space industry.